[[{"header":{"parameterUnit":"m.s-1","parameterCategory":2,"la1":30.2991,"la2":30.254,"lo1":-89.0895,"lo2":-89.0444,"dy":0.0017,"dx":0.0017,"nx":28,"ny":28,"refTime":"2024-06-11T09:00:00:Z","depth":"0","parameterNumber":2,"parameterNumberName":"U-component_of_CURRENTS"},"data":[0,0,0,0,0,0,0,0,0,0,0,0,0,0,0,0,0,0,0,0,0,0,0,0,0,0,0,0,0,0,0,0,0,0,0,0,0,0,0,0,0,0,0,0,0,0,0,0,0,0,0,0,0,0,0,0,0,0,-0.23,-0.2299,0,-0.22,-0.2199,-0.2198,-0.2169,-0.2169,-0.217,-0.2171,-0.2084,-0.2081,-0.2078,0,0,0,0,0,0,0,0,0,0,0,0,0,-0.236,-0.236,-0.23,-0.2299,-0.2298,-0.22,-0.2199,-0.2197,-0.2168,-0.2169,-0.217,-0.2171,-0.2085,-0.2081,-0.2078,0,0,0,0,0,0,0,0,0,0,0,0,0,-0.2304,-0.236,-0.23,-0.2273,-0.2269,-0.2201,-0.2199,-0.2197,-0.2168,-0.2169,-0.217,-0.2171,-0.2086,-0.2082,-0.2077,-0.2031,0,0,-0.2064,-0.2062,0,0,0,0,0,0,0,0,-0.2307,-0.2301,-0.2278,-0.2274,-0.227,-0.2199,-0.2188,-0.2142,-0.2168,-0.2205,-0.2171,-0.2172,-0.2124,-0.2116,-0.2093,-0.2027,-0.2023,-0.2064,-0.2061,-0.2059,-0.2058,0,0,0,0,0,0,0,-0.2311,-0.2305,-0.2259,-0.2277,-0.2272,-0.2229,-0.2223,-0.2179,-0.216,-0.2202,-0.22,-0.2191,-0.2122,-0.2098,-0.2091,-0.2022,-0.2064,-0.206,-0.2057,-0.2055,-0.1948,-0.1948,0,0,0,0,0,0,-0.233,-0.2309,-0.2262,-0.2256,-0.2293,-0.2228,-0.2221,-0.222,-0.216,-0.2152,-0.219,-0.219,-0.2104,-0.2096,-0.2088,-0.2076,-0.2059,-0.2055,-0.2053,-0.1948,-0.1948,-0.1948,0,0,0,0,0,0,-0.2332,-0.2327,-0.2266,-0.2281,-0.227,-0.2227,-0.2225,-0.2217,-0.2202,-0.215,-0.2143,-0.2185,-0.2105,-0.2094,-0.2054,-0.2071,-0.2053,-0.2049,-0.1948,-0.1948,-0.1948,-0.2022,0,0,0,0,0,0,-0.2334,-0.2329,-0.2333,-0.2283,-0.227,-0.2247,-0.2224,-0.2215,-0.2195,-0.2194,-0.2143,-0.2135,-0.2105,-0.2061,-0.205,-0.2065,-0.2046,-0.1949,-0.1948,-0.1948,-0.202,-0.2024,-0.2028,0,0,0,0,0,-0.2337,-0.235,-0.2334,-0.2328,-0.2279,-0.2247,-0.2237,-0.2207,-0.2194,-0.2195,-0.2151,-0.2137,-0.2051,-0.2056,-0.2044,-0.2058,-0.1949,-0.1948,-0.1948,-0.2018,-0.2023,-0.2028,0,0,0,0,0,0,-0.2376,-0.2347,-0.2329,-0.2331,-0.2298,-0.2244,-0.224,-0.2211,-0.2174,-0.2176,-0.2124,-0.2113,-0.2086,-0.2053,-0.2061,-0.2024,-0.2001,-0.1998,-0.2059,-0.2063,-0.2067,-0.2101,-0.2042,0,0,0,0,0,-0.2385,-0.2388,-0.2347,-0.2345,-0.2337,-0.2286,-0.2268,-0.2248,-0.2207,-0.2193,-0.2151,-0.2108,-0.2069,-0.2054,-0.2014,-0.1986,-0.1968,-0.1989,-0.1993,-0.1997,-0.2013,-0.1991,-0.1996,-0.1946,-0.1946,-0.1946,0,0,-0.2394,-0.238,-0.2378,-0.2353,-0.2325,-0.2321,-0.2278,-0.2264,-0.2256,-0.2188,-0.2166,-0.2118,-0.2063,-0.2038,-0.2024,-0.2017,-0.1999,-0.1996,-0.2,-0.2015,-0.1991,-0.1997,-0.2001,-0.1946,-0.1946,-0.1946,0,0,-0.2417,-0.2408,-0.2418,-0.2404,-0.2376,-0.2349,-0.235,-0.2303,-0.2285,-0.2247,-0.2201,-0.2165,-0.2098,-0.2071,-0.2045,-0.2044,-0.2019,-0.203,-0.2083,-0.2061,-0.2066,-0.207,-0.2053,-0.2055,-0.2037,-0.2037,-0.2037,0,-0.2426,-0.2434,-0.2413,-0.2422,-0.2415,-0.237,-0.2378,-0.2351,-0.2293,-0.2277,-0.2256,-0.2162,-0.2119,-0.2091,-0.2093,-0.2058,-0.204,-0.2072,-0.2069,-0.2073,-0.2076,-0.2058,-0.2059,-0.2041,-0.204,-0.204,-0.204,0,-0.2452,-0.2462,-0.247,-0.2469,-0.2464,-0.2462,-0.2434,-0.2423,-0.2389,-0.235,-0.231,-0.2242,-0.2191,-0.2171,-0.2131,-0.2127,-0.2106,-0.2077,-0.2066,-0.2086,-0.2065,-0.2065,-0.2046,-0.2045,-0.2044,-0.2043,0,0,-0.243,-0.2481,-0.2476,-0.2487,-0.249,-0.2478,-0.2494,-0.2473,-0.2471,-0.2416,-0.2403,-0.2333,-0.2292,-0.2261,-0.2208,-0.2191,-0.219,-0.2151,-0.2148,-0.2151,-0.2148,-0.2177,-0.2179,-0.2161,-0.2161,-0.2161,-0.2127,0,-0.2441,-0.2476,-0.2504,-0.2524,-0.2529,-0.2535,-0.2552,-0.2535,-0.2504,-0.2483,-0.2423,-0.2377,-0.2327,-0.2298,-0.228,-0.2202,-0.2193,-0.2203,-0.2114,-0.2112,-0.2149,-0.2181,-0.2057,-0.202,-0.2126,-0.2126,-0.2126,0,-0.2416,-0.2452,-0.2481,-0.2543,-0.255,-0.2562,-0.2575,-0.2586,-0.257,-0.2552,-0.2517,-0.2461,-0.2418,-0.2373,-0.229,-0.2297,-0.2241,-0.2189,-0.2185,-0.2191,-0.2142,-0.2014,-0.2016,-0.1937,-0.2126,-0.2126,-0.2126,0,-0.2326,-0.2415,-0.2438,-0.2453,-0.2523,-0.2542,-0.2574,-0.2581,-0.2584,-0.2576,-0.2569,-0.2521,-0.2471,-0.2412,-0.2313,-0.2296,-0.2233,-0.2187,-0.2166,-0.2167,-0.2036,-0.2026,-0.1965,-0.2153,-0.2153,-0.2153,-0.2153,0,-0.2262,-0.2264,-0.2401,-0.2388,-0.2436,-0.2503,-0.2524,-0.2553,-0.2588,-0.258,-0.2581,-0.2555,-0.2477,-0.2426,-0.2348,-0.227,-0.2257,-0.2195,-0.2169,-0.2058,-0.2051,-0.1955,-0.1952,-0.2151,-0.2152,-0.2152,-0.2152,0,-0.2068,-0.2172,-0.2195,-0.2319,-0.2368,-0.2372,-0.2483,-0.2498,-0.2557,-0.2551,-0.2547,-0.2555,-0.2505,-0.2451,-0.2349,-0.2301,-0.2178,-0.2206,-0.2096,-0.206,-0.1985,-0.1991,-0.1955,-0.1917,-0.2178,-0.2179,-0.2179,0,-0.195,-0.1952,-0.2099,-0.2149,-0.219,-0.2257,-0.2311,-0.2428,-0.2453,-0.2527,-0.2513,-0.2509,-0.2484,-0.2409,-0.2324,-0.2245,-0.2179,-0.2097,-0.2055,-0.1992,-0.1977,-0.1976,-0.1946,-0.1891,-0.1889,-0.1888,-0.1887,0,-0.1725,-0.1787,-0.1822,-0.1948,-0.2022,-0.2119,-0.2211,-0.2242,-0.237,-0.241,-0.2443,-0.2445,-0.2409,-0.2291,-0.2244,-0.2167,-0.2032,-0.2069,-0.1999,-0.1772,-0.1766,-0.171,-0.1916,-0.1873,-0.1875,-0.1875,-0.1876,-0.1877,-0.1547,-0.1538,-0.1642,-0.174,-0.1855,-0.1969,-0.1991,-0.2122,-0.2191,-0.2235,-0.2305,-0.2259,-0.2172,-0.2101,-0.2075,-0.1912,-0.1969,-0.1777,-0.1794,-0.1804,-0.1764,-0.1982,-0.1926,-0.1927,-0.1929,-0.193,-0.1931,0,-0.1357,-0.1398,-0.146,-0.1596,-0.1668,-0.1795,-0.1923,-0.1929,-0.199,-0.2022,-0.2055,-0.1923,-0.1842,-0.1783,-0.1668,-0.1604,-0.1565,-0.1539,-0.1445,-0.1432,-0.158,-0.1563,-0.143,-0.143,-0.143,-0.143,-0.143,-0.1431,-0.127,-0.1261,-0.1314,-0.1396,-0.1496,-0.1535,-0.1584,-0.162,-0.1629,-0.1562,-0.1491,-0.1494,-0.1452,-0.1473,-0.1375,-0.1333,-0.1285,-0.1257,-0.1314,-0.1337,-0.1358,-0.1377,-0.1356,-0.1183,-0.1182,-0.1064,-0.1063,-0.1063]},{"header":{"parameterUnit":"m.s-1","parameterCategory":2,"la1":30.2991,"la2":30.254,"lo1":-89.0895,"lo2":-89.0444,"dy":0.0017,"dx":0.0017,"nx":28,"ny":28,"refTime":"2024-06-11T09:00:00:Z","depth":"0","parameterNumber":3,"parameterNumberName":"V-component_of_CURRENTS"},"data":[0,0,0,0,0,0,0,0,0,0,0,0,0,0,0,0,0,0,0,0,0,0,0,0,0,0,0,0,0,0,0,0,0,0,0,0,0,0,0,0,0,0,0,0,0,0,0,0,0,0,0,0,0,0,0,0,0,0,-0.0491,-0.0491,0,-0.0384,-0.0383,-0.0381,-0.0332,-0.0332,-0.0333,-0.0333,-0.0269,-0.0267,-0.0265,0,0,0,0,0,0,0,0,0,0,0,0,0,-0.0573,-0.0572,-0.0491,-0.049,-0.049,-0.0384,-0.0383,-0.0381,-0.0332,-0.0332,-0.0333,-0.0333,-0.027,-0.0267,-0.0265,0,0,0,0,0,0,0,0,0,0,0,0,0,-0.0505,-0.0572,-0.0492,-0.0455,-0.0451,-0.0385,-0.0382,-0.038,-0.0331,-0.0332,-0.0333,-0.0334,-0.0271,-0.0267,-0.0264,-0.023,0,0,-0.0254,-0.0253,0,0,0,0,0,0,0,0,-0.0509,-0.0502,-0.0462,-0.0458,-0.0453,-0.0376,-0.0388,-0.0334,-0.0331,-0.0373,-0.0333,-0.0334,-0.0311,-0.0304,-0.0276,-0.0227,-0.0225,-0.0254,-0.0252,-0.0251,-0.025,0,0,0,0,0,0,0,-0.0514,-0.0506,-0.0445,-0.0461,-0.0456,-0.0417,-0.0409,-0.0376,-0.0337,-0.0369,-0.0366,-0.0361,-0.0308,-0.0279,-0.0274,-0.0224,-0.0254,-0.0251,-0.0249,-0.0248,-0.0171,-0.0171,0,0,0,0,0,0,-0.0539,-0.0511,-0.0448,-0.0442,-0.0488,-0.0416,-0.0406,-0.0396,-0.0336,-0.0328,-0.036,-0.0359,-0.0284,-0.0278,-0.0272,-0.0252,-0.0251,-0.0248,-0.0246,-0.0171,-0.0171,-0.0171,0,0,0,0,0,0,-0.0541,-0.0534,-0.0453,-0.0477,-0.0465,-0.0415,-0.0404,-0.0394,-0.0365,-0.033,-0.0322,-0.0343,-0.0285,-0.0277,-0.0247,-0.0249,-0.0246,-0.0243,-0.0171,-0.0171,-0.0171,-0.0198,0,0,0,0,0,0,-0.0544,-0.0535,-0.0528,-0.0479,-0.0465,-0.0419,-0.0403,-0.0392,-0.0363,-0.036,-0.0312,-0.0306,-0.0285,-0.0251,-0.0243,-0.0244,-0.0241,-0.0171,-0.0171,-0.0171,-0.0197,-0.0199,-0.02,0,0,0,0,0,-0.0547,-0.053,-0.0528,-0.0521,-0.0459,-0.0419,-0.0407,-0.0371,-0.0362,-0.0347,-0.0318,-0.0308,-0.0245,-0.0248,-0.0239,-0.0239,-0.0171,-0.0171,-0.0171,-0.0196,-0.0198,-0.02,0,0,0,0,0,0,-0.0552,-0.0522,-0.052,-0.0493,-0.0467,-0.0413,-0.0389,-0.0371,-0.0331,-0.0327,-0.0297,-0.0289,-0.0266,-0.0246,-0.0251,-0.0217,-0.021,-0.0207,-0.0232,-0.0234,-0.0235,-0.0239,-0.0238,0,0,0,0,0,-0.0556,-0.054,-0.051,-0.0489,-0.0476,-0.0435,-0.0411,-0.0391,-0.0354,-0.0336,-0.0307,-0.0278,-0.0254,-0.0241,-0.0213,-0.0188,-0.0167,-0.0185,-0.0186,-0.0188,-0.0185,-0.015,-0.0148,-0.017,-0.017,-0.017,0,0,-0.0555,-0.0534,-0.0526,-0.049,-0.0462,-0.0441,-0.042,-0.0386,-0.0371,-0.0337,-0.0302,-0.0279,-0.0248,-0.0223,-0.0212,-0.0209,-0.0172,-0.0187,-0.0189,-0.0185,-0.015,-0.0147,-0.0146,-0.017,-0.017,-0.017,0,0,-0.0543,-0.0525,-0.0511,-0.0491,-0.0458,-0.0436,-0.0432,-0.0386,-0.0367,-0.0335,-0.0312,-0.0287,-0.0246,-0.0224,-0.0209,-0.02,-0.018,-0.0199,-0.0208,-0.0175,-0.0173,-0.0171,-0.015,-0.0146,-0.0201,-0.0201,-0.0201,0,-0.0551,-0.0529,-0.05,-0.0481,-0.0471,-0.044,-0.0429,-0.0398,-0.0351,-0.0338,-0.0332,-0.0268,-0.0244,-0.0216,-0.0217,-0.0202,-0.0186,-0.0206,-0.0177,-0.0174,-0.0171,-0.0151,-0.0146,-0.0202,-0.0202,-0.0202,-0.0202,0,-0.0532,-0.0517,-0.0504,-0.0482,-0.046,-0.0446,-0.0416,-0.0392,-0.0374,-0.0349,-0.0316,-0.0277,-0.0243,-0.0236,-0.0223,-0.0197,-0.0193,-0.0182,-0.0174,-0.0171,-0.015,-0.0144,-0.0204,-0.0204,-0.0203,-0.0203,0,0,-0.0565,-0.0509,-0.051,-0.0509,-0.0467,-0.0456,-0.0425,-0.04,-0.0386,-0.0345,-0.0325,-0.0283,-0.0264,-0.0246,-0.0226,-0.0199,-0.0171,-0.0188,-0.0186,-0.0171,-0.0107,-0.0121,-0.0116,-0.0157,-0.0156,-0.0155,-0.0103,0,-0.0576,-0.056,-0.0518,-0.0512,-0.0512,-0.0471,-0.0449,-0.0417,-0.0386,-0.0356,-0.0315,-0.0288,-0.0268,-0.0258,-0.0225,-0.0182,-0.0156,-0.0186,-0.0109,-0.0107,-0.0122,-0.011,-0.0058,-0.0008,-0.0097,-0.0096,-0.0095,0,-0.0586,-0.0582,-0.0576,-0.0552,-0.0546,-0.0531,-0.0506,-0.0478,-0.042,-0.0393,-0.0349,-0.0312,-0.0266,-0.0252,-0.017,-0.0192,-0.0153,-0.0119,-0.0116,-0.0114,-0.011,-0.0023,0.0006,0.0121,-0.0086,-0.0087,-0.0088,0,-0.0651,-0.0627,-0.0632,-0.0624,-0.0583,-0.0574,-0.0554,-0.0498,-0.0492,-0.0419,-0.0412,-0.0329,-0.0313,-0.0233,-0.0173,-0.0165,-0.0089,-0.0065,-0.004,-0.0041,0.0028,0.0031,0.0177,-0.0006,-0.0006,-0.0006,-0.0006,0,-0.0684,-0.0689,-0.0669,-0.0672,-0.0701,-0.0636,-0.0644,-0.06,-0.0551,-0.057,-0.0448,-0.0454,-0.031,-0.0255,-0.0176,-0.0101,-0.009,-0.0037,-0.0024,0.0017,0.0019,0.014,0.0172,-0.0004,-0.0005,-0.0005,-0.0005,0,-0.0722,-0.0708,-0.0729,-0.0717,-0.0727,-0.0745,-0.0736,-0.0747,-0.0667,-0.0686,-0.0673,-0.0555,-0.047,-0.0334,-0.021,-0.013,0.0021,-0.0021,0.0009,0.0024,0.0169,0.0195,0.0303,0.0344,0.0045,0.0045,0.0045,0,-0.0728,-0.0741,-0.0784,-0.084,-0.0837,-0.0863,-0.0898,-0.0831,-0.0856,-0.078,-0.082,-0.0703,-0.066,-0.0447,-0.0241,-0.0066,0.0001,0.0058,0.0089,0.0188,0.0228,0.0234,0.0261,0.0173,0.0174,0.0175,0.0176,0,-0.0746,-0.0765,-0.0793,-0.0931,-0.0997,-0.1061,-0.1104,-0.114,-0.1082,-0.1072,-0.1059,-0.0992,-0.0733,-0.0475,-0.0206,-0.0105,0.0143,0.0078,0.0196,0.0349,0.0354,0.0395,0.0113,0.0183,0.0182,0.0182,0.0182,0.0181,-0.0768,-0.0816,-0.0893,-0.1018,-0.1127,-0.1253,-0.1296,-0.1325,-0.136,-0.1248,-0.1228,-0.0968,-0.0607,-0.0193,-0.0096,0.0238,0.0181,0.0348,0.0373,0.0372,0.041,0.0122,0.0189,0.0189,0.0188,0.0188,0.0187,0,-0.0781,-0.0854,-0.0986,-0.1151,-0.1305,-0.1326,-0.1432,-0.1407,-0.1437,-0.1218,-0.1116,-0.0605,-0.0286,0.0077,0.047,0.0579,0.0594,0.062,0.0687,0.0702,0.0486,0.0493,0.061,0.061,0.061,0.061,0.061,0.0609,-0.0799,-0.0903,-0.0987,-0.1269,-0.1392,-0.1518,-0.1564,-0.1477,-0.129,-0.086,-0.0439,-0.0163,0.0213,0.0642,0.0919,0.091,0.0991,0.0943,0.0964,0.0876,0.0854,0.0834,0.0852,0.1042,0.1043,0.1201,0.1203,0.1204]}],[{"header":{"parameterUnit":"m.s-1","parameterCategory":2,"la1":30.2991,"la2":30.254,"lo1":-89.0895,"lo2":-89.0444,"dy":0.0017,"dx":0.0017,"nx":28,"ny":28,"refTime":"2024-06-11T09:00:00:Z","depth":"2","parameterNumber":2,"parameterNumberName":"U-component_of_CURRENTS"},"data":[0,0,0,0,0,0,0,0,0,0,0,0,0,0,0,0,0,0,0,0,0,0,0,0,0,0,0,0,0,0,0,0,0,0,0,0,0,0,0,0,0,0,0,0,0,0,0,0,0,0,0,0,0,0,0,0,0,0,-0.2228,-0.2227,0,-0.2142,-0.2141,-0.214,-0.2111,-0.2111,-0.2112,-0.2113,-0.203,-0.2028,-0.2025,0,0,0,0,0,0,0,0,0,0,0,0,0,-0.2197,-0.2199,-0.2228,-0.2227,-0.2227,-0.2143,-0.2141,-0.214,-0.211,-0.2111,-0.2112,-0.2113,-0.2031,-0.2028,-0.2025,0,0,0,0,0,0,0,0,0,0,0,0,0,-0.2168,-0.2199,-0.2228,-0.2205,-0.2202,-0.2143,-0.2141,-0.2139,-0.211,-0.2111,-0.2112,-0.2113,-0.2032,-0.2028,-0.2024,-0.1978,0,0,-0.2011,-0.2009,0,0,0,0,0,0,0,0,-0.217,-0.2169,-0.2209,-0.2206,-0.2203,-0.2141,-0.21,-0.2087,-0.211,-0.2141,-0.2113,-0.2114,-0.2069,-0.2062,-0.2039,-0.1974,-0.1971,-0.2011,-0.2008,-0.2007,-0.2005,0,0,0,0,0,0,0,-0.2172,-0.2171,-0.2191,-0.2208,-0.2205,-0.214,-0.2139,-0.2096,-0.2098,-0.2139,-0.2137,-0.2133,-0.2068,-0.2043,-0.2037,-0.197,-0.2011,-0.2007,-0.2005,-0.2003,-0.1904,-0.1904,0,0,0,0,0,0,-0.2198,-0.2174,-0.2193,-0.2188,-0.2193,-0.2141,-0.2139,-0.2157,-0.2098,-0.2091,-0.2132,-0.2132,-0.205,-0.2042,-0.2034,-0.2024,-0.2007,-0.2003,-0.2,-0.1905,-0.1904,-0.1904,0,0,0,0,0,0,-0.2198,-0.2201,-0.2197,-0.218,-0.2176,-0.2142,-0.2162,-0.2155,-0.2139,-0.2094,-0.2087,-0.2126,-0.205,-0.204,-0.2003,-0.2019,-0.2001,-0.1997,-0.1905,-0.1905,-0.1904,-0.1974,0,0,0,0,0,0,-0.2198,-0.2202,-0.2214,-0.2183,-0.2178,-0.2181,-0.2161,-0.2153,-0.2136,-0.2135,-0.2085,-0.2078,-0.205,-0.2009,-0.1999,-0.2013,-0.1994,-0.1905,-0.1905,-0.1904,-0.1972,-0.1977,-0.198,0,0,0,0,0,-0.2197,-0.2218,-0.2216,-0.2218,-0.2201,-0.2182,-0.2173,-0.2147,-0.2135,-0.2135,-0.2095,-0.208,-0.2001,-0.2005,-0.1993,-0.2007,-0.1905,-0.1905,-0.1904,-0.197,-0.1976,-0.198,0,0,0,0,0,0,-0.2196,-0.2216,-0.2214,-0.2236,-0.2219,-0.2179,-0.2175,-0.2151,-0.2115,-0.2116,-0.2068,-0.2058,-0.2034,-0.2003,-0.2009,-0.1977,-0.1955,-0.1952,-0.2009,-0.2013,-0.2018,-0.2049,-0.199,0,0,0,0,0,-0.2207,-0.2238,-0.2228,-0.2242,-0.2244,-0.2207,-0.2192,-0.2178,-0.2146,-0.2131,-0.2093,-0.2054,-0.2019,-0.2005,-0.1968,-0.1942,-0.1921,-0.1945,-0.1949,-0.1953,-0.1969,-0.1948,-0.1952,-0.1904,-0.1904,-0.1904,0,0,-0.2203,-0.2222,-0.2233,-0.2245,-0.2231,-0.2236,-0.2201,-0.2194,-0.2192,-0.2127,-0.2109,-0.2064,-0.2014,-0.1991,-0.1979,-0.1971,-0.1952,-0.1953,-0.1957,-0.1971,-0.1948,-0.1953,-0.1958,-0.1904,-0.1904,-0.1904,0,0,-0.2206,-0.224,-0.2257,-0.2265,-0.2265,-0.2254,-0.2259,-0.2228,-0.2215,-0.2183,-0.2142,-0.2109,-0.2047,-0.2024,-0.2001,-0.2002,-0.1972,-0.1989,-0.2039,-0.2019,-0.2023,-0.2027,-0.1997,-0.1998,-0.1996,-0.1996,-0.1996,0,-0.2193,-0.2227,-0.2251,-0.2273,-0.2286,-0.2272,-0.2283,-0.2269,-0.2224,-0.2213,-0.2193,-0.2107,-0.2067,-0.2044,-0.2049,-0.2016,-0.1993,-0.2028,-0.2027,-0.203,-0.2032,-0.2001,-0.2001,-0.1999,-0.1999,-0.1999,-0.1998,0,-0.2199,-0.2236,-0.2252,-0.2292,-0.2311,-0.2321,-0.2329,-0.2331,-0.2311,-0.2279,-0.2246,-0.2184,-0.2138,-0.2119,-0.2083,-0.2082,-0.2056,-0.2033,-0.2021,-0.2042,-0.2007,-0.2005,-0.2004,-0.2003,-0.2002,-0.2001,0,0,-0.2133,-0.2234,-0.2237,-0.226,-0.2328,-0.2327,-0.2376,-0.238,-0.2387,-0.2342,-0.2332,-0.2272,-0.2234,-0.2206,-0.2158,-0.2143,-0.2135,-0.2104,-0.2102,-0.2088,-0.2083,-0.2029,-0.2021,-0.2113,-0.2114,-0.2114,-0.2049,0,-0.2114,-0.2158,-0.2233,-0.2271,-0.2289,-0.2356,-0.2397,-0.2411,-0.2412,-0.2401,-0.2351,-0.2307,-0.2269,-0.2237,-0.2225,-0.2147,-0.2136,-0.2155,-0.2054,-0.2051,-0.2011,-0.202,-0.1853,-0.1778,-0.2047,-0.2047,-0.2046,0,-0.2074,-0.2116,-0.2157,-0.226,-0.2278,-0.2307,-0.2381,-0.2418,-0.2444,-0.2445,-0.2429,-0.2378,-0.234,-0.2303,-0.2222,-0.2234,-0.2177,-0.2124,-0.212,-0.2049,-0.1994,-0.18,-0.1764,-0.2043,-0.2044,-0.2044,-0.2044,0,-0.1959,-0.2058,-0.2088,-0.2121,-0.2235,-0.2269,-0.2331,-0.2401,-0.2413,-0.2459,-0.2436,-0.2424,-0.2357,-0.2321,-0.2218,-0.2216,-0.2128,-0.2105,-0.2008,-0.2003,-0.1831,-0.1811,-0.2069,-0.2069,-0.207,-0.207,-0.207,0,-0.1892,-0.1905,-0.2028,-0.2029,-0.2066,-0.2192,-0.2223,-0.2305,-0.2373,-0.2368,-0.2422,-0.2364,-0.2354,-0.2291,-0.224,-0.2115,-0.2142,-0.2023,-0.1987,-0.1848,-0.1831,-0.204,-0.2038,-0.2067,-0.2068,-0.2068,-0.2069,0,-0.1734,-0.1825,-0.1847,-0.1965,-0.2002,-0.2017,-0.2129,-0.2147,-0.2251,-0.2254,-0.2253,-0.2276,-0.222,-0.2213,-0.2138,-0.2091,-0.2017,-0.1971,-0.1813,-0.1761,-0.1901,-0.1903,-0.1854,-0.1852,-0.185,-0.1848,-0.1847,0,-0.1651,-0.1651,-0.1752,-0.1769,-0.1812,-0.1864,-0.1904,-0.2048,-0.2063,-0.2157,-0.2115,-0.2107,-0.2066,-0.1975,-0.1927,-0.1876,-0.1932,-0.1675,-0.1652,-0.1912,-0.1881,-0.1886,-0.1891,-0.1439,-0.1434,-0.1431,-0.1428,0,-0.1486,-0.1527,-0.1549,-0.1593,-0.1624,-0.1673,-0.1732,-0.1738,-0.1906,-0.1921,-0.1938,-0.1933,-0.187,-0.1734,-0.1698,-0.1635,-0.1687,-0.1595,-0.1886,-0.1536,-0.1519,-0.149,-0.1508,-0.1394,-0.1397,-0.14,-0.1401,-0.1403,-0.135,-0.1334,-0.1388,-0.1418,-0.1466,-0.1516,-0.1517,-0.159,-0.1635,-0.1662,-0.1711,-0.1646,-0.1616,-0.1455,-0.1397,-0.136,-0.1468,-0.1378,-0.1389,-0.1405,-0.1385,-0.1368,-0.1209,-0.1211,-0.1213,-0.1215,-0.1216,0,-0.1205,-0.122,-0.1227,-0.129,-0.1305,-0.1381,-0.1427,-0.1415,-0.1449,-0.1431,-0.1431,-0.1255,-0.1156,-0.1146,-0.104,-0.1037,-0.1036,-0.0986,-0.0966,-0.0998,-0.1027,-0.099,-0.0708,-0.0707,-0.0706,-0.0705,0,0,-0.1131,-0.1099,-0.1121,-0.113,-0.1179,-0.1169,-0.1183,-0.1175,-0.1148,-0.1082,-0.1001,-0.1011,-0.106,-0.0856,-0.0835,-0.0752,-0.0868,-0.0714,-0.1113,-0.1117,-0.1145,-0.1235,-0.1211,0,0,0,0,0]},{"header":{"parameterUnit":"m.s-1","parameterCategory":2,"la1":30.2991,"la2":30.254,"lo1":-89.0895,"lo2":-89.0444,"dy":0.0017,"dx":0.0017,"nx":28,"ny":28,"refTime":"2024-06-11T09:00:00:Z","depth":"2","parameterNumber":3,"parameterNumberName":"V-component_of_CURRENTS"},"data":[0,0,0,0,0,0,0,0,0,0,0,0,0,0,0,0,0,0,0,0,0,0,0,0,0,0,0,0,0,0,0,0,0,0,0,0,0,0,0,0,0,0,0,0,0,0,0,0,0,0,0,0,0,0,0,0,0,0,-0.0336,-0.0336,0,-0.0256,-0.0255,-0.0253,-0.0214,-0.0215,-0.0215,-0.0216,-0.0148,-0.0146,-0.0143,0,0,0,0,0,0,0,0,0,0,0,0,0,-0.0352,-0.0352,-0.0336,-0.0336,-0.0335,-0.0256,-0.0255,-0.0253,-0.0214,-0.0215,-0.0216,-0.0216,-0.0149,-0.0146,-0.0143,0,0,0,0,0,0,0,0,0,0,0,0,0,-0.0311,-0.0352,-0.0336,-0.031,-0.0308,-0.0257,-0.0255,-0.0253,-0.0214,-0.0215,-0.0216,-0.0216,-0.0149,-0.0146,-0.0143,-0.0106,0,0,-0.0132,-0.0131,0,0,0,0,0,0,0,0,-0.0313,-0.031,-0.0315,-0.0312,-0.0309,-0.0251,-0.0235,-0.0206,-0.0214,-0.0244,-0.0216,-0.0217,-0.0186,-0.018,-0.0155,-0.0103,-0.01,-0.0132,-0.013,-0.0128,-0.0127,0,0,0,0,0,0,0,-0.0316,-0.0312,-0.0299,-0.0314,-0.0311,-0.0268,-0.0263,-0.0229,-0.0208,-0.0241,-0.024,-0.0239,-0.0184,-0.0158,-0.0153,-0.0099,-0.0132,-0.0129,-0.0127,-0.0125,-0.0049,-0.0049,0,0,0,0,0,0,-0.0342,-0.0316,-0.0302,-0.0297,-0.0319,-0.0267,-0.0262,-0.0264,-0.0208,-0.0201,-0.0239,-0.0238,-0.0164,-0.0157,-0.0151,-0.0129,-0.0128,-0.0125,-0.0123,-0.0049,-0.0049,-0.0049,0,0,0,0,0,0,-0.0342,-0.0341,-0.0305,-0.0308,-0.0302,-0.0268,-0.027,-0.0262,-0.024,-0.0207,-0.0199,-0.0225,-0.0164,-0.0156,-0.0126,-0.0126,-0.0124,-0.012,-0.0049,-0.0049,-0.0049,-0.007,0,0,0,0,0,0,-0.0343,-0.0342,-0.0339,-0.0311,-0.0303,-0.0279,-0.0269,-0.026,-0.0241,-0.0239,-0.0193,-0.0187,-0.0164,-0.0131,-0.0123,-0.0121,-0.0118,-0.0049,-0.0049,-0.0049,-0.007,-0.0071,-0.0072,0,0,0,0,0,-0.0344,-0.0331,-0.0339,-0.0337,-0.0304,-0.0279,-0.027,-0.0244,-0.024,-0.0227,-0.0201,-0.0188,-0.0126,-0.0128,-0.0118,-0.0115,-0.0049,-0.0049,-0.0049,-0.0069,-0.0071,-0.0072,0,0,0,0,0,0,-0.0333,-0.0326,-0.0334,-0.0321,-0.0309,-0.0275,-0.0256,-0.0245,-0.021,-0.0207,-0.0179,-0.0171,-0.0147,-0.0127,-0.0131,-0.0095,-0.0089,-0.0087,-0.0108,-0.0109,-0.011,-0.0113,-0.0115,0,0,0,0,0,-0.0335,-0.0327,-0.032,-0.0312,-0.0308,-0.0285,-0.0268,-0.0255,-0.0228,-0.0213,-0.0186,-0.016,-0.0136,-0.0121,-0.0094,-0.0067,-0.0043,-0.0062,-0.0064,-0.0065,-0.0061,-0.0025,-0.0022,-0.0049,-0.0049,-0.0049,0,0,-0.0332,-0.0326,-0.0324,-0.031,-0.0297,-0.0284,-0.0275,-0.0253,-0.0241,-0.0211,-0.0181,-0.0159,-0.013,-0.0104,-0.0093,-0.0089,-0.0046,-0.0065,-0.0066,-0.0062,-0.0024,-0.0022,-0.0019,-0.0049,-0.0049,-0.0049,0,0,-0.032,-0.0319,-0.0309,-0.03,-0.0287,-0.0274,-0.0274,-0.0246,-0.0234,-0.0205,-0.0188,-0.0165,-0.0124,-0.0104,-0.0089,-0.008,-0.0054,-0.008,-0.0085,-0.005,-0.0047,-0.0045,-0.0013,-0.0008,-0.008,-0.008,-0.008,0,-0.0324,-0.0314,-0.0301,-0.0289,-0.0286,-0.0276,-0.0269,-0.0248,-0.0214,-0.0205,-0.0202,-0.0143,-0.0122,-0.0092,-0.0095,-0.0082,-0.0061,-0.0081,-0.0051,-0.0048,-0.0045,-0.0013,-0.0007,-0.0081,-0.0081,-0.0081,-0.0081,0,-0.0304,-0.03,-0.0292,-0.0285,-0.027,-0.0264,-0.025,-0.0237,-0.0228,-0.0207,-0.0178,-0.0144,-0.0114,-0.0108,-0.0098,-0.0071,-0.0063,-0.0057,-0.0047,-0.0043,-0.0011,-0.0003,-0.0083,-0.0082,-0.0082,-0.0082,0,0,-0.0335,-0.0292,-0.0296,-0.0296,-0.0274,-0.0267,-0.025,-0.0237,-0.0228,-0.0195,-0.0176,-0.0141,-0.0125,-0.0109,-0.0093,-0.0065,-0.003,-0.0058,-0.0056,-0.0027,0.0045,0.007,0.008,-0.0022,-0.002,-0.002,0.0058,0,-0.0343,-0.0327,-0.0295,-0.0291,-0.0294,-0.0273,-0.0257,-0.0236,-0.022,-0.0194,-0.0161,-0.0133,-0.0125,-0.0115,-0.0085,-0.0042,-0.0012,-0.0052,0.0038,0.0041,0.0062,0.0089,0.01,0.0172,0.0066,0.0067,0.0068,0,-0.0353,-0.0345,-0.0339,-0.0314,-0.0311,-0.03,-0.0291,-0.0271,-0.023,-0.0213,-0.0178,-0.0144,-0.0099,-0.0096,-0.0012,-0.004,-0.0002,0.0033,0.0037,0.0074,0.0079,0.0152,0.0189,0.008,0.0079,0.0078,0.0077,0,-0.0408,-0.0382,-0.0384,-0.0378,-0.034,-0.0337,-0.0323,-0.0287,-0.0275,-0.023,-0.021,-0.0145,-0.0115,-0.0052,0.0008,0.0003,0.0101,0.0106,0.0168,0.017,0.0205,0.0209,0.0168,0.0168,0.0168,0.0168,0.0167,0,-0.044,-0.0444,-0.0414,-0.0419,-0.0427,-0.0382,-0.038,-0.0357,-0.0313,-0.0305,-0.023,-0.0193,-0.0104,-0.0038,0.0018,0.0116,0.0111,0.018,0.0198,0.0197,0.0199,0.0138,0.0133,0.0171,0.017,0.0169,0.0169,0,-0.049,-0.0469,-0.0478,-0.0455,-0.0453,-0.0465,-0.0432,-0.0429,-0.0376,-0.0365,-0.035,-0.0226,-0.0132,-0.0047,0.0063,0.0129,0.0216,0.0246,0.0237,0.0253,0.0263,0.0256,0.0349,0.035,0.0352,0.0353,0.0354,0,-0.0508,-0.0517,-0.0522,-0.0541,-0.0534,-0.0539,-0.0541,-0.0486,-0.0475,-0.0388,-0.0378,-0.0265,-0.0179,0.0019,0.0145,0.0268,0.0242,0.0357,0.0356,0.0276,0.0284,0.0275,0.0267,0.0393,0.0394,0.0395,0.0396,0,-0.0545,-0.0549,-0.0559,-0.0609,-0.0629,-0.0631,-0.0624,-0.0614,-0.0556,-0.0491,-0.0393,-0.0305,-0.0128,0.0066,0.0232,0.0304,0.0343,0.0383,0.0316,0.034,0.0323,0.0329,0.0319,0.0405,0.0404,0.0404,0.0403,0.0403,-0.0577,-0.0604,-0.0627,-0.0676,-0.0706,-0.0712,-0.0697,-0.0645,-0.0578,-0.0414,-0.0363,-0.0159,-0.0048,0.0267,0.0329,0.0407,0.0414,0.0464,0.0459,0.0454,0.0439,0.0425,0.0524,0.0524,0.0523,0.0523,0.0523,0,-0.0602,-0.0635,-0.0689,-0.0743,-0.0788,-0.0786,-0.0744,-0.0676,-0.0567,-0.0355,-0.0186,0.0011,0.0226,0.0305,0.0442,0.0513,0.0487,0.0519,0.0477,0.047,0.0464,0.0446,0.0535,0.0534,0.0534,0.0534,0,0,-0.0617,-0.0664,-0.0702,-0.0801,-0.0848,-0.0858,-0.0822,-0.0671,-0.0492,-0.0199,0.0015,0.027,0.0294,0.0406,0.046,0.0498,0.0464,0.0498,0.0493,0.0432,0.0424,0.0447,0.0415,0,0,0,0,0]}],[{"header":{"parameterUnit":"m.s-1","parameterCategory":2,"la1":30.2991,"la2":30.254,"lo1":-89.0895,"lo2":-89.0444,"dy":0.0017,"dx":0.0017,"nx":28,"ny":28,"refTime":"2024-06-11T09:00:00:Z","depth":"4","parameterNumber":2,"parameterNumberName":"U-component_of_CURRENTS"},"data":[0,0,0,0,0,0,0,0,0,0,0,0,0,0,0,0,0,0,0,0,0,0,0,0,0,0,0,0,0,0,0,0,0,0,0,0,0,0,0,0,0,0,0,0,0,0,0,0,0,0,0,0,0,0,0,0,0,0,-0.0538,-0.0538,0,-0.0583,-0.0583,-0.0583,-0.0659,-0.066,-0.0662,-0.0663,-0.0969,-0.0975,-0.0982,0,0,0,0,0,0,0,0,0,0,0,0,0,-0.068,-0.0675,-0.0537,-0.0538,-0.0539,-0.0583,-0.0583,-0.0583,-0.0658,-0.066,-0.0662,-0.0664,-0.0966,-0.0974,-0.0982,0,0,0,0,0,0,0,0,0,0,0,0,0,-0.0658,-0.0674,-0.0537,-0.0583,-0.0588,-0.0583,-0.0583,-0.0584,-0.0658,-0.066,-0.0663,-0.0665,-0.0964,-0.0974,-0.0983,-0.0997,0,0,-0.1014,-0.1018,0,0,0,0,0,0,0,0,-0.0659,-0.0652,-0.0576,-0.058,-0.0586,-0.062,-0.0745,-0.0735,-0.0657,-0.0629,-0.0663,-0.0666,-0.0876,-0.0893,-0.0889,-0.1011,-0.1024,-0.1015,-0.1021,-0.1025,-0.1028,0,0,0,0,0,0,0,-0.066,-0.0652,-0.0553,-0.0576,-0.0582,-0.0658,-0.0656,-0.0743,-0.0741,-0.0632,-0.0638,-0.0646,-0.088,-0.0879,-0.0898,-0.1028,-0.1014,-0.1023,-0.1029,-0.1033,-0.1369,-0.1372,0,0,0,0,0,0,-0.0647,-0.0651,-0.0552,-0.0555,-0.0632,-0.0653,-0.0651,-0.0604,-0.0735,-0.0756,-0.0644,-0.0649,-0.0861,-0.0886,-0.0909,-0.1123,-0.1025,-0.1034,-0.104,-0.1366,-0.137,-0.1373,0,0,0,0,0,0,-0.0648,-0.0635,-0.055,-0.0611,-0.0605,-0.0647,-0.0595,-0.0604,-0.0632,-0.0742,-0.0768,-0.0667,-0.0864,-0.0895,-0.1048,-0.1129,-0.1039,-0.1048,-0.1363,-0.1367,-0.1371,-0.143,0,0,0,0,0,0,-0.0651,-0.0634,-0.0604,-0.0607,-0.0601,-0.0571,-0.0594,-0.0603,-0.0632,-0.0641,-0.077,-0.0798,-0.0868,-0.1033,-0.1058,-0.1141,-0.1056,-0.1359,-0.1365,-0.137,-0.1425,-0.1436,-0.1446,0,0,0,0,0,-0.0655,-0.0616,-0.06,-0.059,-0.0553,-0.0571,-0.0576,-0.0615,-0.0631,-0.0647,-0.0761,-0.0796,-0.1085,-0.1043,-0.1072,-0.116,-0.1356,-0.1363,-0.1369,-0.142,-0.1434,-0.1446,0,0,0,0,0,0,-0.0703,-0.062,-0.0604,-0.055,-0.0567,-0.0586,-0.0602,-0.0619,-0.0707,-0.0736,-0.0835,-0.0873,-0.1051,-0.1081,-0.1031,-0.1271,-0.1226,-0.1238,-0.1254,-0.1268,-0.1279,-0.1223,-0.1064,0,0,0,0,0,-0.0682,-0.0618,-0.0588,-0.0566,-0.0554,-0.0574,-0.0588,-0.0615,-0.0686,-0.0722,-0.0816,-0.0937,-0.1089,-0.1157,-0.1279,-0.1389,-0.1327,-0.1463,-0.1474,-0.1482,-0.1457,-0.1393,-0.1393,-0.1395,-0.1395,-0.1394,0,0,-0.0728,-0.0654,-0.0641,-0.0571,-0.0577,-0.0583,-0.059,-0.0618,-0.0669,-0.0749,-0.0866,-0.0991,-0.1133,-0.1292,-0.1368,-0.133,-0.1458,-0.1491,-0.1498,-0.1467,-0.1399,-0.1398,-0.1397,-0.1399,-0.1398,-0.1398,0,0,-0.0785,-0.0683,-0.066,-0.0649,-0.0633,-0.0615,-0.0623,-0.0646,-0.0698,-0.0831,-0.092,-0.1067,-0.127,-0.1367,-0.1455,-0.1581,-0.1533,-0.1642,-0.1639,-0.1579,-0.1576,-0.1573,-0.1512,-0.1502,-0.1626,-0.1626,-0.1626,0,-0.0839,-0.0771,-0.0682,-0.0665,-0.0661,-0.0627,-0.0647,-0.0683,-0.0777,-0.0816,-0.0894,-0.1175,-0.1307,-0.1473,-0.1554,-0.1606,-0.1549,-0.1583,-0.1586,-0.1581,-0.1576,-0.1514,-0.1503,-0.163,-0.1629,-0.1629,-0.1629,0,-0.0881,-0.0842,-0.0835,-0.0759,-0.0746,-0.0757,-0.0759,-0.0757,-0.0818,-0.0889,-0.1079,-0.1259,-0.1403,-0.1504,-0.1603,-0.1662,-0.1627,-0.1618,-0.1535,-0.1578,-0.1512,-0.1499,-0.1635,-0.1634,-0.1633,-0.1632,0,0,-0.0933,-0.0872,-0.0868,-0.0854,-0.0785,-0.0779,-0.0789,-0.0793,-0.0796,-0.097,-0.1021,-0.1352,-0.1415,-0.1513,-0.1629,-0.1619,-0.1598,-0.1615,-0.161,-0.1523,-0.1446,-0.1454,-0.144,-0.1571,-0.1569,-0.1568,-0.1417,0,-0.0989,-0.0973,-0.0922,-0.0935,-0.0912,-0.0839,-0.0847,-0.0856,-0.0894,-0.0923,-0.1107,-0.1266,-0.1431,-0.1523,-0.1545,-0.1587,-0.1563,-0.1638,-0.1443,-0.1437,-0.1412,-0.1425,-0.1561,-0.1407,-0.1404,-0.1402,-0.14,0,-0.1007,-0.0979,-0.1005,-0.0955,-0.0939,-0.0953,-0.0845,-0.0874,-0.0873,-0.0923,-0.1037,-0.1153,-0.1272,-0.1368,-0.1414,-0.1447,-0.1455,-0.1466,-0.1459,-0.1424,-0.142,-0.1355,-0.1375,-0.1377,-0.1379,-0.1381,-0.1382,0,-0.1017,-0.1014,-0.1023,-0.1019,-0.0972,-0.0965,-0.0936,-0.0896,-0.0911,-0.0915,-0.0949,-0.1048,-0.1166,-0.1149,-0.1295,-0.131,-0.1269,-0.1264,-0.1265,-0.1264,-0.127,-0.1275,-0.1221,-0.1221,-0.1221,-0.1222,-0.1222,0,-0.1019,-0.1028,-0.1045,-0.1052,-0.1034,-0.1017,-0.1001,-0.0942,-0.093,-0.0945,-0.1005,-0.1055,-0.1121,-0.1152,-0.1184,-0.1215,-0.1181,-0.1248,-0.1221,-0.1307,-0.1318,-0.1261,-0.1268,-0.1216,-0.1217,-0.1219,-0.122,0,-0.1014,-0.1032,-0.1042,-0.1046,-0.1042,-0.1042,-0.1036,-0.1,-0.102,-0.1006,-0.1029,-0.1068,-0.11,-0.115,-0.1122,-0.1131,-0.11,-0.1118,-0.1211,-0.1195,-0.1137,-0.1149,-0.1005,-0.1003,-0.1003,-0.1002,-0.1001,0,-0.0996,-0.101,-0.1039,-0.1025,-0.1041,-0.105,-0.1007,-0.102,-0.0994,-0.1034,-0.1017,-0.1084,-0.1111,-0.105,-0.1105,-0.1061,-0.1109,-0.1035,-0.1091,-0.1124,-0.1112,-0.1126,-0.1139,-0.1,-0.0999,-0.0999,-0.0999,0,-0.0955,-0.0994,-0.0998,-0.098,-0.0973,-0.0952,-0.0943,-0.0938,-0.0941,-0.0995,-0.0967,-0.0981,-0.1017,-0.1009,-0.1027,-0.1016,-0.1024,-0.1025,-0.1027,-0.1078,-0.1116,-0.1108,-0.1122,-0.0996,-0.0996,-0.0996,-0.0997,0,-0.0911,-0.0913,-0.0925,-0.0896,-0.0885,-0.0846,-0.0859,-0.083,-0.0831,-0.0882,-0.0876,-0.094,-0.0986,-0.0991,-0.0996,-0.0991,-0.0977,-0.0914,-0.0921,-0.0925,-0.0989,-0.1031,-0.0837,0,0,0,0,0,-0.085,-0.084,-0.0812,-0.0795,-0.079,-0.0778,-0.0772,-0.0791,-0.0843,-0.0781,-0.0825,-0.0841,-0.0869,-0.0911,-0.0894,-0.0999,-0.0998,-0.0976,-0.0931,-0.0978,-0.0981,-0.1077,0,0,0,0,0,0,-0.08,-0.0797,-0.0788,-0.0714,-0.0684,-0.0665,-0.066,-0.0688,-0.0661,-0.0723,-0.074,-0.0791,-0.0836,-0.0875,-0.0882,-0.0896,-0.0848,-0.1024,-0.1021,-0.0976,-0.0979,-0.0982,-0.1081,0,0,0,0,0]},{"header":{"parameterUnit":"m.s-1","parameterCategory":2,"la1":30.2991,"la2":30.254,"lo1":-89.0895,"lo2":-89.0444,"dy":0.0017,"dx":0.0017,"nx":28,"ny":28,"refTime":"2024-06-11T09:00:00:Z","depth":"4","parameterNumber":3,"parameterNumberName":"V-component_of_CURRENTS"},"data":[0,0,0,0,0,0,0,0,0,0,0,0,0,0,0,0,0,0,0,0,0,0,0,0,0,0,0,0,0,0,0,0,0,0,0,0,0,0,0,0,0,0,0,0,0,0,0,0,0,0,0,0,0,0,0,0,0,0,-0.0278,-0.0279,0,-0.0321,-0.0321,-0.0322,-0.0332,-0.0332,-0.0332,-0.0331,-0.0239,-0.0237,-0.0235,0,0,0,0,0,0,0,0,0,0,0,0,0,-0.0169,-0.0171,-0.0278,-0.0279,-0.0279,-0.0321,-0.0321,-0.0322,-0.0332,-0.0332,-0.0332,-0.0331,-0.024,-0.0237,-0.0235,0,0,0,0,0,0,0,0,0,0,0,0,0,-0.0215,-0.0172,-0.0278,-0.0289,-0.029,-0.0321,-0.0321,-0.0322,-0.0333,-0.0332,-0.0332,-0.0331,-0.0241,-0.0238,-0.0234,-0.0224,0,0,-0.0225,-0.0223,0,0,0,0,0,0,0,0,-0.0212,-0.0219,-0.0287,-0.0288,-0.029,-0.032,-0.0249,-0.0282,-0.0333,-0.0317,-0.0331,-0.0331,-0.0254,-0.025,-0.0261,-0.0219,-0.0215,-0.0224,-0.0222,-0.0221,-0.022,0,0,0,0,0,0,0,-0.0209,-0.0217,-0.0295,-0.0288,-0.0289,-0.0279,-0.0286,-0.0256,-0.0285,-0.0318,-0.0319,-0.0323,-0.0254,-0.0264,-0.0259,-0.0214,-0.0224,-0.0221,-0.0219,-0.0218,-0.0121,-0.012,0,0,0,0,0,0,-0.0206,-0.0215,-0.0294,-0.0297,-0.0249,-0.0282,-0.0289,-0.0311,-0.0289,-0.0286,-0.0324,-0.0324,-0.027,-0.0262,-0.0255,-0.0203,-0.0221,-0.0218,-0.0216,-0.0121,-0.0121,-0.012,0,0,0,0,0,0,-0.0204,-0.0214,-0.0292,-0.0255,-0.0264,-0.0284,-0.0309,-0.0313,-0.0328,-0.0294,-0.0289,-0.0336,-0.027,-0.026,-0.0265,-0.02,-0.0216,-0.0213,-0.0122,-0.0121,-0.012,-0.0121,0,0,0,0,0,0,-0.0201,-0.0213,-0.0224,-0.0255,-0.0266,-0.0314,-0.031,-0.0314,-0.033,-0.0331,-0.0302,-0.0294,-0.0268,-0.0271,-0.0262,-0.0196,-0.0211,-0.0123,-0.0122,-0.0121,-0.0122,-0.0121,-0.0119,0,0,0,0,0,-0.0197,-0.0217,-0.0225,-0.0234,-0.0283,-0.0314,-0.0319,-0.0331,-0.0332,-0.0342,-0.0346,-0.0295,-0.0254,-0.027,-0.0259,-0.019,-0.0124,-0.0122,-0.0121,-0.0123,-0.0121,-0.0119,0,0,0,0,0,0,-0.0179,-0.0221,-0.023,-0.0263,-0.0287,-0.0316,-0.0324,-0.0336,-0.035,-0.0348,-0.0321,-0.0314,-0.0277,-0.0254,-0.0272,-0.0159,-0.0165,-0.0161,-0.0169,-0.0167,-0.0166,-0.0181,-0.0208,0,0,0,0,0,-0.018,-0.0196,-0.0241,-0.0258,-0.0277,-0.0302,-0.0315,-0.0328,-0.0346,-0.0352,-0.0341,-0.0309,-0.0262,-0.0239,-0.0207,-0.017,-0.0169,-0.0109,-0.0108,-0.0106,-0.0112,-0.0103,-0.0102,-0.0115,-0.0115,-0.0115,0,0,-0.0172,-0.0197,-0.0204,-0.0253,-0.0272,-0.0305,-0.0309,-0.0334,-0.0367,-0.0335,-0.0369,-0.0313,-0.0257,-0.0212,-0.0188,-0.0185,-0.0099,-0.0105,-0.0104,-0.011,-0.0102,-0.0101,-0.01,-0.0114,-0.0114,-0.0115,0,0,-0.0158,-0.0195,-0.0204,-0.0232,-0.0267,-0.0299,-0.031,-0.0353,-0.038,-0.0407,-0.0367,-0.0315,-0.0269,-0.0215,-0.0176,-0.0155,-0.0098,-0.0094,-0.0087,-0.0078,-0.0078,-0.0077,-0.0065,-0.0063,-0.0085,-0.0084,-0.0084,0,-0.0154,-0.0175,-0.0209,-0.0231,-0.0251,-0.0301,-0.0324,-0.0371,-0.041,-0.0425,-0.0419,-0.0327,-0.0275,-0.0194,-0.0161,-0.0148,-0.0128,-0.0097,-0.0078,-0.0077,-0.0077,-0.0065,-0.0063,-0.0084,-0.0084,-0.0084,-0.0084,0,-0.015,-0.017,-0.0181,-0.023,-0.0258,-0.0288,-0.0357,-0.0402,-0.0432,-0.0454,-0.0416,-0.036,-0.0288,-0.0231,-0.018,-0.0103,-0.0085,-0.0085,-0.0086,-0.0076,-0.0063,-0.0061,-0.0084,-0.0084,-0.0084,-0.0084,0,0,-0.0163,-0.0176,-0.0185,-0.0191,-0.0263,-0.0288,-0.036,-0.0425,-0.0453,-0.047,-0.0473,-0.0364,-0.0306,-0.0257,-0.0164,-0.0129,-0.0085,-0.008,-0.0079,-0.0075,-0.0047,0.003,0.004,-0.0067,-0.0066,-0.0066,-0.0038,0,-0.0162,-0.0177,-0.0191,-0.022,-0.0247,-0.0304,-0.0353,-0.0412,-0.0461,-0.0489,-0.0445,-0.0393,-0.0327,-0.0237,-0.0203,-0.0117,-0.008,-0.0092,-0.0052,-0.0052,0.001,0.0044,-0.0066,-0.0037,-0.0036,-0.0036,-0.0036,0,-0.0182,-0.0186,-0.0203,-0.0211,-0.0226,-0.0253,-0.033,-0.0367,-0.0434,-0.0452,-0.0423,-0.0393,-0.0317,-0.0269,-0.0175,-0.0175,-0.01,-0.0054,-0.0052,0.0019,0.003,-0.005,-0.0032,-0.0033,-0.0033,-0.0033,-0.0033,0,-0.0199,-0.0204,-0.021,-0.0221,-0.0249,-0.0268,-0.0285,-0.0353,-0.0364,-0.0411,-0.039,-0.0371,-0.029,-0.026,-0.0135,-0.0151,-0.0043,-0.0079,0.0047,0.0052,-0.003,-0.0031,-0.0018,-0.0018,-0.0018,-0.0018,-0.0018,0,-0.0222,-0.0231,-0.0212,-0.0226,-0.0228,-0.0239,-0.0248,-0.0291,-0.0297,-0.0264,-0.0324,-0.0266,-0.0269,-0.0206,-0.0154,-0.0027,-0.0065,0.0057,0.0071,-0.0028,-0.003,-0.0028,-0.0029,-0.0017,-0.0018,-0.0018,-0.0018,0,-0.0262,-0.0247,-0.0258,-0.0253,-0.0241,-0.0247,-0.0204,-0.019,-0.0206,-0.0164,-0.0154,-0.0168,-0.0105,-0.0098,-0.0025,0.0006,0.0072,0.0143,0.0057,0.0063,0.0148,0.0146,0.0206,0.0209,0.0211,0.0213,0.0215,0,-0.0283,-0.0289,-0.0276,-0.0252,-0.0248,-0.0224,-0.0182,-0.0166,-0.0125,-0.0072,-0.0026,0.002,0.0021,0.0145,0.013,0.0164,0.0206,0.0222,0.0158,0.0166,0.0173,0.0167,0.0162,0.0219,0.022,0.0221,0.0221,0,-0.0324,-0.0324,-0.0328,-0.0274,-0.0227,-0.0157,-0.0087,-0.0042,0.0024,0.0018,0.0124,0.0148,0.022,0.0204,0.0269,0.0296,0.0167,0.0249,0.0241,0.0181,0.0183,0.0186,0.0178,0.0231,0.0229,0.0228,0.0228,0,-0.0355,-0.0368,-0.0344,-0.0298,-0.0218,-0.0098,-0.0063,0.0054,0.011,0.0187,0.0235,0.0258,0.0262,0.0283,0.0334,0.0359,0.0332,0.0325,0.0313,0.0303,0.0321,0.0337,0.0456,0,0,0,0,0,-0.0376,-0.0373,-0.0337,-0.0273,-0.0179,-0.0129,0.001,0.006,0.0139,0.0244,0.0246,0.0314,0.0364,0.0349,0.0389,0.0337,0.0307,0.0382,0.0286,0.0281,0.027,0.0283,0,0,0,0,0,0,-0.0384,-0.0377,-0.0358,-0.0242,-0.0187,-0.0065,0.0021,0.0087,0.0154,0.0219,0.024,0.029,0.0314,0.0312,0.0361,0.0366,0.0313,0.0397,0.0399,0.0287,0.0277,0.0269,0.0278,0,0,0,0,0]}]]